| time (UTC) | temp F | wind direction | speed MPH | gust MPH | rain 1hr in | rain 24hr in | rain mn in | humidity % | barometer mb |
| 20260502211831 | 73 | 266 | 0.0 | 3.0 | 0.00 | 0.00 | 0.00 | 52 | 1019.3 |
| 20260502211326 | 72 | 275 | 5.0 | 10.0 | 0.00 | 0.00 | 0.00 | 52 | 1019.3 |
| 20260502210824 | 74 | 292 | 0.0 | 7.0 | 0.00 | 0.00 | 0.00 | 52 | 1019.4 |
| 20260502210321 | 75 | 270 | 1.0 | 5.0 | 0.00 | 0.00 | 0.00 | 49 | 1019.3 |
| 20260502205818 | 75 | 246 | 0.0 | 3.0 | 0.00 | 0.00 | 0.00 | 49 | 1019.4 |
| 20260502205314 | 74 | 32 | 0.0 | 0.0 | 0.00 | 0.00 | 0.00 | 50 | 1019.5 |
| 20260502204811 | 72 | 259 | 7.0 | 12.0 | 0.00 | 0.00 | 0.00 | 52 | 1019.6 |
| 20260502204308 | 72 | 274 | 3.0 | 12.0 | 0.00 | 0.00 | 0.00 | 52 | 1019.6 |
| 20260502203806 | 73 | 63 | 2.0 | 5.0 | 0.00 | 0.00 | 0.00 | 51 | 1019.7 |
| 20260502203304 | 71 | 227 | 0.0 | 12.0 | 0.00 | 0.00 | 0.00 | 53 | 1019.5 |
| 20260502202803 | 72 | 200 | 0.0 | 10.0 | 0.00 | 0.00 | 0.00 | 52 | 1019.6 |
| 20260502202304 | 73 | 218 | 0.0 | 0.0 | 0.00 | 0.00 | 0.00 | 51 | 1019.8 |
| 20260502201759 | 71 | 250 | 5.0 | 7.0 | 0.00 | 0.00 | 0.00 | 52 | 1019.8 |
| 20260502201255 | 71 | 273 | 0.0 | 7.0 | 0.00 | 0.00 | 0.00 | 53 | 1020.1 |
| 20260502200751 | 72 | 299 | 0.0 | 7.0 | 0.00 | 0.00 | 0.00 | 52 | 1019.8 |
| 20260502200247 | 73 | 234 | 0.0 | 0.0 | 0.00 | 0.00 | 0.00 | 52 | 1020.0 |
| 20260502195746 | 72 | 293 | 0.0 | 7.0 | 0.00 | 0.00 | 0.00 | 52 | 1020.1 |
| 20260502195242 | 71 | 31 | 0.0 | 3.0 | 0.00 | 0.00 | 0.00 | 54 | 1020.1 |
| 20260502194738 | 70 | 265 | 0.0 | 5.0 | 0.00 | 0.00 | 0.00 | 54 | 1020.2 |
| 20260502194236 | 72 | 264 | 0.0 | 0.0 | 0.00 | 0.00 | 0.00 | 52 | 1020.2 |
| 20260502193731 | 70 | 205 | 0.0 | 7.0 | 0.00 | 0.00 | 0.00 | 56 | 1020.4 |
| 20260502193229 | 70 | 222 | 0.0 | 0.0 | 0.00 | 0.00 | 0.00 | 55 | 1020.2 |
| 20260502192729 | 69 | 250 | 1.0 | 5.0 | 0.00 | 0.00 | 0.00 | 57 | 1020.4 |
| 20260502192227 | 70 | 269 | 4.0 | 5.0 | 0.00 | 0.00 | 0.00 | 54 | 1020.4 |
| 20260502191723 | 69 | 213 | 0.0 | 3.0 | 0.00 | 0.00 | 0.00 | 57 | 1020.5 |
| 20260502191221 | 67 | 304 | 2.0 | 7.0 | 0.00 | 0.00 | 0.00 | 59 | 1020.6 |
| 20260502190718 | 66 | 276 | 7.0 | 10.0 | 0.00 | 0.00 | 0.00 | 59 | 1020.4 |
| 20260502190216 | 67 | 263 | 0.0 | 12.0 | 0.00 | 0.00 | 0.00 | 60 | 1020.7 |
| 20260502185715 | 68 | 259 | 0.0 | 5.0 | 0.00 | 0.00 | 0.00 | 59 | 1020.8 |
| 20260502185212 | 67 | 256 | 0.0 | 10.0 | 0.00 | 0.00 | 0.00 | 59 | 1020.8 |
| 20260502184709 | 68 | 251 | 0.0 | 5.0 | 0.00 | 0.00 | 0.00 | 58 | 1021.0 |
| 20260502184204 | 68 | 278 | 3.0 | 7.0 | 0.00 | 0.00 | 0.00 | 58 | 1020.9 |
| 20260502183701 | 67 | 255 | 0.0 | 0.0 | 0.00 | 0.00 | 0.00 | 58 | 1020.9 |
| 20260502183157 | 68 | 98 | 0.0 | 5.0 | 0.00 | 0.00 | 0.00 | 57 | 1020.8 |
| 20260502182652 | 68 | 204 | 0.0 | 0.0 | 0.00 | 0.00 | 0.00 | 58 | 1021.0 |
| 20260502182148 | 65 | 309 | 3.0 | 7.0 | 0.00 | 0.00 | 0.00 | 61 | 1021.2 |
| 20260502181646 | 66 | 287 | 1.0 | 7.0 | 0.00 | 0.00 | 0.00 | 60 | 1021.0 |
| 20260502181145 | 66 | 273 | 0.0 | 10.0 | 0.00 | 0.00 | 0.00 | 59 | 1021.0 |
| 20260502180641 | 66 | 250 | 0.0 | 3.0 | 0.00 | 0.00 | 0.00 | 58 | 1021.2 |
| 20260502180139 | 66 | 228 | 0.0 | 0.0 | 0.00 | 0.00 | 0.00 | 58 | 1021.1 |
| 20260502164049 | 59 | 207 | 0.0 | 0.0 | 0.00 | 0.00 | 0.00 | 70 | 1021.4 |
| 20260502163545 | 57 | 216 | 0.0 | 5.0 | 0.00 | 0.00 | 0.00 | 73 | 1021.4 |
| 20260502163042 | 57 | 295 | 0.0 | 0.0 | 0.00 | 0.00 | 0.00 | 72 | 1021.3 |
| 20260502162539 | 57 | 255 | 0.0 | 0.0 | 0.00 | 0.00 | 0.00 | 73 | 1021.4 |
| 20260502162036 | 57 | 250 | 0.0 | 0.0 | 0.00 | 0.00 | 0.00 | 73 | 1021.3 |
| 20260502161533 | 57 | 128 | 0.0 | 0.0 | 0.00 | 0.00 | 0.00 | 73 | 1021.6 |
| 20260502161031 | 56 | 137 | 0.0 | 0.0 | 0.00 | 0.00 | 0.00 | 75 | 1021.5 |
| 20260502160528 | 55 | 125 | 0.0 | 0.0 | 0.00 | 0.00 | 0.00 | 76 | 1021.7 |
| 20260502151930 | 53 | 244 | 0.0 | 0.0 | 0.00 | 0.00 | 0.00 | 80 | 1021.6 |
| 20260502151426 | 53 | 237 | 0.0 | 0.0 | 0.00 | 0.00 | 0.00 | 80 | 1021.5 |
| 20260502150924 | 53 | 243 | 0.0 | 0.0 | 0.00 | 0.00 | 0.00 | 80 | 1021.6 |
| 20260502150420 | 53 | 148 | 0.0 | 0.0 | 0.00 | 0.00 | 0.00 | 80 | 1021.4 |
| 20260502130306 | 52 | 278 | 0.0 | 0.0 | 0.00 | 0.00 | 0.00 | 82 | 1021.3 |
| 20260502123752 | 52 | 212 | 0.0 | 0.0 | 0.00 | 0.00 | 0.00 | 81 | 1021.3 |
| 20260502123249 | 52 | 211 | 0.0 | 0.0 | 0.00 | 0.00 | 0.00 | 81 | 1021.4 |
| 20260502122745 | 52 | 211 | 0.0 | 0.0 | 0.00 | 0.00 | 0.00 | 81 | 1021.4 |
| 20260502122241 | 52 | 216 | 0.0 | 0.0 | 0.00 | 0.00 | 0.00 | 81 | 1021.6 |
| 20260502121740 | 52 | 187 | 0.0 | 0.0 | 0.00 | 0.00 | 0.00 | 81 | 1021.5 |
| 20260502121237 | 52 | 227 | 0.0 | 0.0 | 0.00 | 0.00 | 0.00 | 81 | 1021.7 |
| 20260502120733 | 52 | 196 | 0.0 | 0.0 | 0.00 | 0.00 | 0.00 | 81 | 1021.9 |
| 20260502120230 | 52 | 198 | 0.0 | 0.0 | 0.00 | 0.00 | 0.00 | 81 | 1021.7 |
| 20260502115728 | 52 | 157 | 0.0 | 0.0 | 0.00 | 0.00 | 0.00 | 81 | 1021.6 |
| 20260502115225 | 52 | 172 | 0.0 | 0.0 | 0.00 | 0.00 | 0.00 | 81 | 1021.6 |
| 20260502114720 | 52 | 183 | 0.0 | 0.0 | 0.00 | 0.00 | 0.00 | 81 | 1021.8 |
| 20260502114218 | 52 | 196 | 0.0 | 0.0 | 0.00 | 0.00 | 0.00 | 81 | 1021.6 |
| 20260502113715 | 52 | 150 | 0.0 | 0.0 | 0.00 | 0.00 | 0.00 | 81 | 1021.6 |
| 20260502113213 | 52 | 268 | 0.0 | 0.0 | 0.00 | 0.00 | 0.00 | 80 | 1021.7 |
| 20260502112711 | 52 | 162 | 0.0 | 0.0 | 0.00 | 0.00 | 0.00 | 80 | 1021.8 |
| 20260502112208 | 52 | 164 | 0.0 | 0.0 | 0.00 | 0.00 | 0.00 | 80 | 1021.9 |
| 20260502111705 | 53 | 189 | 0.0 | 0.0 | 0.00 | 0.00 | 0.00 | 80 | 1021.7 |
| 20260502111203 | 53 | 144 | 0.0 | 0.0 | 0.00 | 0.00 | 0.00 | 79 | 1021.9 |
| 20260502110700 | 53 | 192 | 0.0 | 0.0 | 0.00 | 0.00 | 0.00 | 79 | 1021.8 |
| 20260502110157 | 53 | 147 | 0.0 | 0.0 | 0.00 | 0.00 | 0.00 | 79 | 1022.0 |
| 20260502105655 | 53 | 146 | 0.0 | 0.0 | 0.00 | 0.00 | 0.00 | 78 | 1021.9 |
| 20260502105152 | 53 | 208 | 0.0 | 0.0 | 0.00 | 0.00 | 0.00 | 78 | 1022.1 |
| 20260502104649 | 53 | 231 | 0.0 | 0.0 | 0.00 | 0.00 | 0.00 | 78 | 1022.0 |
| 20260502104147 | 53 | 231 | 0.0 | 0.0 | 0.00 | 0.00 | 0.00 | 78 | 1022.4 |
| 20260502103644 | 53 | 159 | 0.0 | 5.0 | 0.00 | 0.00 | 0.00 | 78 | 1022.3 |
| 20260502103142 | 53 | 129 | 1.0 | 5.0 | 0.00 | 0.00 | 0.00 | 77 | 1022.3 |
| 20260502102638 | 53 | 180 | 0.0 | 0.0 | 0.00 | 0.00 | 0.00 | 78 | 1022.2 |
| 20260502102135 | 53 | 211 | 0.0 | 0.0 | 0.00 | 0.00 | 0.00 | 78 | 1022.0 |
| 20260502101633 | 53 | 260 | 0.0 | 0.0 | 0.00 | 0.00 | 0.00 | 78 | 1021.6 |
| 20260502101131 | 53 | 219 | 0.0 | 3.0 | 0.00 | 0.00 | 0.00 | 78 | 1021.3 |
| 20260502100629 | 53 | 171 | 0.0 | 0.0 | 0.00 | 0.00 | 0.00 | 78 | 1021.3 |
| 20260502100127 | 53 | 214 | 0.0 | 0.0 | 0.00 | 0.00 | 0.00 | 77 | 1021.3 |
| 20260502091101 | 54 | 242 | 0.0 | 0.0 | 0.00 | 0.00 | 0.00 | 76 | 1021.1 |
| 20260502090558 | 55 | 216 | 0.0 | 0.0 | 0.00 | 0.00 | 0.00 | 75 | 1021.3 |
| 20260502071452 | 58 | 201 | 0.0 | 0.0 | 0.00 | 0.00 | 0.00 | 67 | 1021.2 |
| 20260502070950 | 58 | 189 | 0.0 | 0.0 | 0.00 | 0.00 | 0.00 | 67 | 1021.3 |
| 20260502070448 | 58 | 216 | 0.0 | 0.0 | 0.00 | 0.00 | 0.00 | 67 | 1021.3 |
| 20260502065946 | 58 | 216 | 0.0 | 0.0 | 0.00 | 0.00 | 0.00 | 66 | 1021.2 |
| 20260502065445 | 59 | 216 | 0.0 | 0.0 | 0.00 | 0.00 | 0.00 | 65 | 1021.0 |
| 20260502064942 | 59 | 212 | 0.0 | 0.0 | 0.00 | 0.00 | 0.00 | 64 | 1020.9 |
| 20260502064440 | 59 | 197 | 0.0 | 0.0 | 0.00 | 0.00 | 0.00 | 64 | 1021.0 |
| 20260502063937 | 59 | 206 | 0.0 | 0.0 | 0.00 | 0.00 | 0.00 | 63 | 1021.2 |
| 20260502063435 | 60 | 215 | 0.0 | 0.0 | 0.00 | 0.00 | 0.00 | 62 | 1020.9 |
| 20260502062932 | 60 | 203 | 0.0 | 0.0 | 0.00 | 0.00 | 0.00 | 61 | 1021.1 |
| 20260502062429 | 61 | 199 | 0.0 | 0.0 | 0.00 | 0.00 | 0.00 | 60 | 1020.8 |
| 20260502061928 | 61 | 209 | 0.0 | 0.0 | 0.00 | 0.00 | 0.00 | 59 | 1021.1 |
| 20260502061426 | 61 | 198 | 0.0 | 0.0 | 0.00 | 0.00 | 0.00 | 59 | 1021.2 |
| 20260502060921 | 62 | 207 | 0.0 | 0.0 | 0.00 | 0.00 | 0.00 | 58 | 1020.9 |
| 20260502060416 | 62 | 280 | 0.0 | 5.0 | 0.00 | 0.00 | 0.00 | 57 | 1020.9 |
| 20260502055914 | 62 | 281 | 0.0 | 0.0 | 0.00 | 0.00 | 0.00 | 58 | 1020.8 |
| 20260502055412 | 62 | 241 | 0.0 | 0.0 | 0.00 | 0.00 | 0.00 | 59 | 1020.7 |
| 20260502054912 | 63 | 214 | 0.0 | 0.0 | 0.00 | 0.00 | 0.00 | 59 | 1020.6 |
| 20260502054409 | 63 | 228 | 0.0 | 0.0 | 0.00 | 0.00 | 0.00 | 59 | 1020.6 |
| 20260502053906 | 63 | 229 | 0.0 | 0.0 | 0.00 | 0.00 | 0.00 | 59 | 1020.8 |
| 20260502053404 | 63 | 229 | 0.0 | 0.0 | 0.00 | 0.00 | 0.00 | 59 | 1020.5 |
| 20260502052900 | 63 | 228 | 0.0 | 0.0 | 0.00 | 0.00 | 0.00 | 59 | 1020.5 |
| 20260502052359 | 63 | 266 | 0.0 | 0.0 | 0.00 | 0.00 | 0.00 | 59 | 1020.1 |
| 20260502051856 | 63 | 240 | 0.0 | 3.0 | 0.00 | 0.00 | 0.00 | 59 | 1020.4 |
| 20260502051355 | 63 | 230 | 0.0 | 0.0 | 0.00 | 0.00 | 0.00 | 59 | 1020.3 |
| 20260502050851 | 64 | 236 | 0.0 | 0.0 | 0.00 | 0.00 | 0.00 | 58 | 1020.3 |
| 20260502050347 | 63 | 278 | 0.0 | 0.0 | 0.00 | 0.00 | 0.00 | 59 | 1020.3 |
| 20260502045844 | 63 | 244 | 0.0 | 0.0 | 0.00 | 0.00 | 0.00 | 59 | 1020.3 |
| 20260502045341 | 63 | 231 | 0.0 | 0.0 | 0.00 | 0.00 | 0.00 | 59 | 1020.2 |
| 20260502044838 | 64 | 230 | 0.0 | 0.0 | 0.00 | 0.00 | 0.00 | 58 | 1020.2 |
| 20260502044334 | 64 | 229 | 0.0 | 0.0 | 0.00 | 0.00 | 0.00 | 58 | 1020.3 |
| 20260502043832 | 64 | 277 | 0.0 | 0.0 | 0.00 | 0.00 | 0.00 | 57 | 1019.9 |
| 20260502043329 | 64 | 275 | 0.0 | 0.0 | 0.00 | 0.00 | 0.00 | 57 | 1019.9 |
| 20260502042828 | 64 | 231 | 0.0 | 0.0 | 0.00 | 0.00 | 0.00 | 57 | 1020.1 |
| 20260502042326 | 64 | 226 | 0.0 | 0.0 | 0.00 | 0.00 | 0.00 | 56 | 1020.0 |
| 20260502041823 | 64 | 263 | 0.0 | 0.0 | 0.00 | 0.00 | 0.00 | 56 | 1020.0 |
| 20260502041320 | 64 | 261 | 0.0 | 0.0 | 0.00 | 0.00 | 0.00 | 56 | 1020.0 |
| 20260502040818 | 64 | 226 | 0.0 | 0.0 | 0.00 | 0.00 | 0.00 | 56 | 1019.8 |
| 20260502040315 | 64 | 236 | 0.0 | 0.0 | 0.00 | 0.00 | 0.00 | 55 | 1019.8 |
| 20260502035810 | 64 | 219 | 0.0 | 0.0 | 0.00 | 0.00 | 0.00 | 56 | 1019.7 |
| 20260502035307 | 65 | 222 | 0.0 | 0.0 | 0.00 | 0.00 | 0.00 | 56 | 1019.6 |
| 20260502034804 | 65 | 251 | 0.0 | 0.0 | 0.00 | 0.00 | 0.00 | 54 | 1019.5 |
| 20260502034303 | 65 | 257 | 0.0 | 0.0 | 0.00 | 0.00 | 0.00 | 53 | 1019.6 |
| 20260502033801 | 66 | 236 | 0.0 | 0.0 | 0.00 | 0.00 | 0.00 | 54 | 1019.6 |
| 20260502033258 | 66 | 237 | 0.0 | 0.0 | 0.00 | 0.00 | 0.00 | 52 | 1019.5 |
| 20260502032755 | 67 | 265 | 0.0 | 0.0 | 0.00 | 0.00 | 0.00 | 51 | 1019.5 |
| 20260502032251 | 67 | 263 | 0.0 | 0.0 | 0.00 | 0.00 | 0.00 | 49 | 1019.1 |
| 20260502031749 | 67 | 241 | 0.0 | 0.0 | 0.00 | 0.00 | 0.00 | 49 | 1019.1 |
| 20260502031247 | 68 | 211 | 0.0 | 0.0 | 0.00 | 0.00 | 0.00 | 49 | 1019.1 |
| 20260502030745 | 68 | 303 | 0.0 | 3.0 | 0.00 | 0.00 | 0.00 | 48 | 1019.1 |
| 20260502030243 | 68 | 260 | 0.0 | 0.0 | 0.00 | 0.00 | 0.00 | 47 | 1019.1 |
| 20260502025739 | 68 | 227 | 0.0 | 0.0 | 0.00 | 0.00 | 0.00 | 47 | 1018.9 |
| 20260502025238 | 68 | 233 | 0.0 | 0.0 | 0.00 | 0.00 | 0.00 | 46 | 1019.0 |
| 20260502024735 | 69 | 287 | 0.0 | 5.0 | 0.00 | 0.00 | 0.00 | 45 | 1019.0 |
| 20260502024233 | 69 | 292 | 0.0 | 5.0 | 0.00 | 0.00 | 0.00 | 46 | 1018.9 |
| 20260502023731 | 69 | 226 | 0.0 | 0.0 | 0.00 | 0.00 | 0.00 | 46 | 1019.1 |
| 20260502023228 | 69 | 275 | 0.0 | 3.0 | 0.00 | 0.00 | 0.00 | 45 | 1018.9 |
| 20260502022726 | 69 | 285 | 5.0 | 7.0 | 0.00 | 0.00 | 0.00 | 45 | 1018.8 |
| 20260502022222 | 69 | 228 | 0.0 | 0.0 | 0.00 | 0.00 | 0.00 | 45 | 1018.7 |
| 20260502021719 | 70 | 249 | 0.0 | 5.0 | 0.00 | 0.00 | 0.00 | 47 | 1018.8 |
| 20260502021216 | 70 | 219 | 0.0 | 5.0 | 0.00 | 0.00 | 0.00 | 49 | 1018.7 |
| 20260502020713 | 70 | 209 | 0.0 | 0.0 | 0.00 | 0.00 | 0.00 | 47 | 1018.4 |
| 20260502020210 | 70 | 246 | 0.0 | 0.0 | 0.00 | 0.00 | 0.00 | 44 | 1018.5 |
| 20260502015708 | 71 | 248 | 0.0 | 0.0 | 0.00 | 0.00 | 0.00 | 43 | 1018.8 |
| 20260502015204 | 71 | 248 | 0.0 | 3.0 | 0.00 | 0.00 | 0.00 | 43 | 1018.7 |
| 20260502014702 | 71 | 210 | 0.0 | 0.0 | 0.00 | 0.00 | 0.00 | 43 | 1018.9 |
| 20260502014159 | 71 | 211 | 0.0 | 0.0 | 0.00 | 0.00 | 0.00 | 42 | 1018.7 |
| 20260502013654 | 71 | 277 | 0.0 | 5.0 | 0.00 | 0.00 | 0.00 | 42 | 1018.7 |
| 20260502013150 | 71 | 227 | 0.0 | 0.0 | 0.00 | 0.00 | 0.00 | 42 | 1018.6 |
| 20260502012648 | 72 | 210 | 0.0 | 5.0 | 0.00 | 0.00 | 0.00 | 43 | 1018.8 |
| 20260502012146 | 72 | 258 | 0.0 | 0.0 | 0.00 | 0.00 | 0.00 | 43 | 1018.6 |
| 20260502011642 | 72 | 321 | 3.0 | 10.0 | 0.00 | 0.00 | 0.00 | 43 | 1018.8 |
| 20260502011138 | 72 | 281 | 4.0 | 10.0 | 0.00 | 0.00 | 0.00 | 44 | 1018.8 |
| 20260502010636 | 72 | 266 | 3.0 | 7.0 | 0.00 | 0.00 | 0.00 | 45 | 1018.8 |
| 20260502010132 | 72 | 324 | 5.0 | 7.0 | 0.00 | 0.00 | 0.00 | 44 | 1018.7 |
| 20260502005629 | 72 | 273 | 0.0 | 5.0 | 0.00 | 0.00 | 0.00 | 45 | 1018.6 |
| 20260502005127 | 72 | 319 | 1.0 | 5.0 | 0.00 | 0.00 | 0.00 | 44 | 1018.9 |
| 20260502004623 | 73 | 283 | 0.0 | 3.0 | 0.00 | 0.00 | 0.00 | 45 | 1018.7 |
| 20260502004120 | 73 | 284 | 1.0 | 5.0 | 0.00 | 0.00 | 0.00 | 44 | 1019.0 |
| 20260502003618 | 72 | 276 | 1.0 | 7.0 | 0.00 | 0.00 | 0.00 | 45 | 1018.8 |
| 20260502003114 | 73 | 232 | 0.0 | 7.0 | 0.00 | 0.00 | 0.00 | 45 | 1018.8 |
| 20260502002610 | 72 | 298 | 2.0 | 5.0 | 0.00 | 0.00 | 0.00 | 44 | 1018.8 |
| 20260502002108 | 73 | 315 | 3.0 | 7.0 | 0.00 | 0.00 | 0.00 | 46 | 1018.6 |
| 20260502001606 | 72 | 275 | 0.0 | 10.0 | 0.00 | 0.00 | 0.00 | 46 | 1018.8 |
| 20260502001102 | 72 | 269 | 3.0 | 7.0 | 0.00 | 0.00 | 0.00 | 46 | 1018.9 |
| 20260502000601 | 73 | 294 | 3.0 | 5.0 | 0.00 | 0.00 | 0.00 | 45 | 1018.9 |
| 20260502000058 | 74 | 277 | 6.0 | 7.0 | 0.00 | 0.00 | 0.00 | 44 | 1018.7 |
| 20260501235553 | 74 | 239 | 0.0 | 0.0 | 0.00 | 0.00 | 0.00 | 44 | 1018.6 |
| 20260501235049 | 73 | 263 | 1.0 | 5.0 | 0.00 | 0.00 | 0.00 | 44 | 1018.9 |
| 20260501234545 | 74 | 216 | 0.0 | 5.0 | 0.00 | 0.00 | 0.00 | 43 | 1018.6 |
| 20260501234043 | 74 | 292 | 3.0 | 5.0 | 0.00 | 0.00 | 0.00 | 42 | 1018.6 |
| 20260501233541 | 74 | 266 | 6.0 | 7.0 | 0.00 | 0.00 | 0.00 | 42 | 1018.8 |
| 20260501233038 | 74 | 282 | 0.0 | 0.0 | 0.00 | 0.00 | 0.00 | 43 | 1018.7 |
| 20260501232534 | 74 | 225 | 0.0 | 0.0 | 0.00 | 0.00 | 0.00 | 43 | 1018.9 |
| 20260501232031 | 74 | 229 | 0.0 | 3.0 | 0.00 | 0.00 | 0.00 | 42 | 1018.9 |
| 20260501231529 | 74 | 284 | 0.0 | 5.0 | 0.00 | 0.00 | 0.00 | 43 | 1018.9 |
| 20260501231027 | 74 | 310 | 3.0 | 5.0 | 0.00 | 0.00 | 0.00 | 42 | 1019.1 |
| 20260501230526 | 74 | 229 | 0.0 | 7.0 | 0.00 | 0.00 | 0.00 | 44 | 1019.1 |
| 20260501230023 | 75 | 267 | 1.0 | 5.0 | 0.00 | 0.00 | 0.00 | 43 | 1019.0 |
| 20260501225521 | 76 | 287 | 3.0 | 5.0 | 0.00 | 0.00 | 0.00 | 40 | 1019.4 |
| 20260501225016 | 75 | 244 | 0.0 | 5.0 | 0.00 | 0.00 | 0.00 | 42 | 1019.2 |
| 20260501224514 | 74 | 271 | 3.0 | 10.0 | 0.00 | 0.00 | 0.00 | 43 | 1019.6 |
| 20260501224011 | 74 | 302 | 2.0 | 5.0 | 0.00 | 0.00 | 0.00 | 41 | 1019.5 |
| 20260501223507 | 76 | 281 | 0.0 | 7.0 | 0.00 | 0.00 | 0.00 | 40 | 1019.4 |
| 20260501223003 | 76 | 274 | 0.0 | 7.0 | 0.00 | 0.00 | 0.00 | 40 | 1019.5 |
| 20260501222500 | 74 | 266 | 0.0 | 7.0 | 0.00 | 0.00 | 0.00 | 40 | 1019.6 |
| 20260501221956 | 74 | 288 | 2.0 | 7.0 | 0.00 | 0.00 | 0.00 | 40 | 1019.6 |
| 20260501221453 | 75 | 248 | 0.0 | 5.0 | 0.00 | 0.00 | 0.00 | 41 | 1019.8 |
| 20260501220952 | 73 | 287 | 4.0 | 7.0 | 0.00 | 0.00 | 0.00 | 40 | 1019.8 |
| 20260501220449 | 74 | 277 | 0.0 | 5.0 | 0.00 | 0.00 | 0.00 | 41 | 1019.7 |
| 20260501215945 | 73 | 263 | 3.0 | 7.0 | 0.00 | 0.00 | 0.00 | 41 | 1019.8 |
| 20260501215442 | 73 | 284 | 0.0 | 5.0 | 0.00 | 0.00 | 0.00 | 40 | 1019.8 |
| 20260501214937 | 73 | 275 | 1.0 | 12.0 | 0.00 | 0.00 | 0.00 | 41 | 1019.9 |
| 20260501214433 | 74 | 211 | 0.0 | 3.0 | 0.00 | 0.00 | 0.00 | 40 | 1019.8 |
| 20260501213928 | 73 | 189 | 0.0 | 5.0 | 0.00 | 0.00 | 0.00 | 41 | 1019.8 |
| 20260501213426 | 72 | 286 | 3.0 | 7.0 | 0.00 | 0.00 | 0.00 | 40 | 1020.0 |
| 20260501212921 | 72 | 266 | 0.0 | 7.0 | 0.00 | 0.00 | 0.00 | 40 | 1019.9 |
| 20260501212418 | 73 | 308 | 9.0 | 12.0 | 0.00 | 0.00 | 0.00 | 38 | 1020.2 |